Lid_Strength_Index
5 4 5 5 5 5 5 4 4 4 3 3 2 2 2 2 2 1 1 -0 -0 -0 1 0 1 1 1 1 1 1 1 1 1 3 2 2 1 1 1 1 1 2 1
5 5 6 6 6 6 6 5 4 3 3 3 2 1 2 2 1 2 1 0 0 1 -0 1 1 1 1 1 1 2 2 2 2 3 3 5 3 2 1 1 1 2 1
6 7 6 7 7 7 7 5 5 4 2 2 2 1 2 2 1 1 1 0 -0 0 1 -0 1 1 1 1 1 2 2 3 2 1 3 6 7 5 2 2 1 1 1
7 7 7 8 8 8 7 7 5 6 4 4 2 2 3 3 2 2 1 1 0 0 0 0 1 1 0 1 1 1 1 1 3 2 2 2 2 6 6 3 3 2 2
7 8 8 8 8 9 9 8 7 8 7 5 5 5 4 4 5 4 4 5 6 7 6 5 4 2 1 1 1 1 1 1 2 2 3 3 2 2 4 6 4 2 2
8 8 8 8 9 10 10 10 9 9 8 7 6 7 8 8 7 8 7 7 8 8 8 7 6 5 5 5 4 2 1 1 1 1 2 2 4 4 4 5 4 4 2
8 9 10 11 11 11 11 10 10 10 9 8 9 8 9 10 11 9 9 10 10 10 9 9 8 9 8 8 8 5 4 5 4 4 3 2 2 2 2 3 4 4 3
9 10 11 12 12 12 12 12 12 12 11 11 11 10 10 11 11 12 11 11 11 11 11 10 9 9 9 9 8 7 7 6 8 7 8 6 5 6 5 5 5 5 4
10 11 12 13 13 13 12 12 12 12 12 12 12 13 12 12 12 12 12 12 12 11 11 10 10 10 10 10 9 9 10 9 9 9 9 9 8 8 8 7 6 6 7
11 12 13 13 13 13 12 12 12 13 13 12 13 13 13 13 13 13 13 13 13 12 12 11 11 11 11 11 11 10 11 10 10 10 10 10 10 9 8 8 8 9 10
12 12 13 13 13 13 13 13 13 13 13 13 14 14 14 14 14 14 14 14 13 13 13 12 12 12 12 12 12 12 12 12 11 11 11 11 10 10 10 11 10 10 10
10 11 12 13 13 13 13 13 13 14 14 14 14 14 14 15 15 15 15 14 15 14 14 13 13 13 14 13 13 13 13 13 12 12 11 12 11 12 12 11 12 12 11
10 11 12 12 14 14 14 14 14 14 14 14 15 16 16 16 16 16 15 15 15 15 15 14 14 14 14 14 14 13 13 13 13 13 13 13 13 13 13 13 13 12 12
10 11 12 12 13 14 14 15 14 15 15 15 15 16 16 16 16 16 16 15 15 15 15 15 15 14 14 14 14 14 13 13 13 13 13 14 14 15 14 14 14 13 14
10 10 11 11 13 14 15 15 15 15 15 16 16 16 16 16 16 16 16 16 16 15 15 15 15 15 15 14 14 14 13 14 14 14 14 13 14 13 13 13 13 13 13
9 10 10 11 12 14 14 14 16 15 15 16 16 16 16 16 16 16 16 16 16 16 16 16 16 15 15 13 13 13 14 14 14 14 14 13 13 13 13 12 12 12 14
9 9 10 11 11 13 14 15 16 16 16 16 17 16 16 17 17 16 17 17 17 17 17 17 16 16 15 13 12 13 14 14 14 14 15 14 14 14 14 13 13 13 13
7 8 10 10 12 14 15 15 16 16 16 17 17 17 17 17 17 17 17 18 17 17 17 16 16 16 15 13 13 14 14 15 15 15 15 15 15 15 14 15 15 15 15
6 8 9 11 15 16 16 16 16 17 17 17 17 17 18 18 18 19 18 17 17 17 17 16 16 16 16 14 13 15 15 15 15 15 15 15 16 14 14 16 17 17 16
8 11 14 16 17 17 16 16 16 17 17 17 18 18 18 18 19 19 18 17 17 17 16 16 16 16 16 15 14 14 16 16 17 16 16 15 16 15 15 17 18 19 18
14 16 16 17 17 17 16 16 17 18 17 18 18 19 19 19 19 19 18 18 18 17 18 17 17 17 16 16 14 14 16 16 18 18 18 18 16 16 16 16 18 18 17
16 16 18 18 18 16 16 17 18 18 19 19 19 20 21 20 20 23 20 20 20 20 20 20 19 18 17 16 15 15 15 16 19 19 19 19 17 17 17 18 17 17 19
17 18 18 19 18 17 17 18 20 20 20 21 22 22 21 21 20 22 21 21 22 22 21 20 21 20 18 18 16 17 16 17 18 18 18 18 18 18 19 18 18 20 21
18 19 19 19 20 18 18 20 20 21 22 23 22 22 21 21 21 20 20 22 23 23 21 22 24 23 21 20 19 18 19 18 19 19 22 20 20 20 20 21 20 20 19
19 19 19 20 21 21 22 22 23 23 23 22 22 21 22 22 22 21 22 21 21 21 25 27 25 27 28 21 17 18 19 19 18 25 27 26 24 24 23 22 21 20 20
20 20 21 21 22 23 25 25 25 23 23 23 23 23 23 23 23 23 23 20 20 20 19 19 21 23 19 18 17 17 17 18 18 32 33 28 25 25 24 24 23 22 22